Regional Weather Roundup
Issued by NWS

Home | Current Version | Previous Version | Graphics & Text | Print | Product List | Glossary On
Versions: 1 2 3 4 5 6 7 8 9 10 11 12 13 14 15 16 17 18 19 20 21 22 23 24 25 26 27 28 29 30 31 32 33 34 35 36 37 38 39 40 41 42 43 44 45 46 47 48 49 50
000
ASUS43 KOAX 200310
RWRNE

WEATHER ROUNDUP FOR NEBRASKA
NATIONAL WEATHER SERVICE OMAHA NE
900 PM CST FRI JAN 19 2018

NOTES: SATELLITE DATA IS BEING USED TO AUGMENT CLOUD COVER ABOVE
       12000 FEET.
       "FAIR" INDICATES FEW OR NO CLOUDS BELOW 12,000 FEET WITH NO
       SIGNIFICANT WEATHER AND/OR OBSTRUCTIONS TO VISIBILITY.


NEZ001>004-019>022-054>056-200400-
NEBRASKA PANHANDLE

CITY           SKY/WX    TMP DP  RH WIND       PRES   REMARKS
SCOTTSBLUFF    CLOUDY    37  30  75 NE3       29.73R
ALLIANCE       MOCLDY    30  29  96 NE3       29.74R
CHADRON        MOCLDY    29  27  92 SW8       29.76R WCI  21
KIMBALL        CLOUDY    37  24  60 S5        29.74R WCI  34
SIDNEY         CLOUDY    35  24  64 VRB3      29.74R
$$

NEZ057>060-069>072-079>082-200400-
SOUTHWEST NEBRASKA

CITY           SKY/WX    TMP DP  RH WIND       PRES   REMARKS
NORTH PLATTE   CLOUDY    40  31  70 NE3       29.74R
IMPERIAL       CLOUDY    34  27  75 N3        29.73S
LEXINGTON      CLOUDY    37  31  78 CALM      29.73S
MCCOOK         CLOUDY    35  25  66 CALM      29.72R
OGALLALA       CLOUDY    35  30  84 CALM      29.77R
$$

NEZ005>010-023>029-035>040-094-200400-
NORTH CENTRAL NEBRASKA

CITY           SKY/WX    TMP DP  RH WIND       PRES   REMARKS
VALENTINE      MOCLDY    36  31  82 NW3       29.76R
AINSWORTH      CLOUDY    32  30  93 CALM      29.76R
BROKEN BOW     CLOUDY    40  32  73 N6        29.73S
O`NEILL        CLOUDY    36  33  88 NW6       29.76R WCI  31
ORD            MOCLDY    36  31  82 NW7       29.74R WCI  30
THEDFORD       CLOUDY    35  32  88 CALM      29.76R
$$

NEZ041-046>049-061>064-073>077-083>087-200400-
SOUTH CENTRAL NEBRASKA

CITY           SKY/WX    TMP DP  RH WIND       PRES   REMARKS
GRAND ISLAND   CLOUDY    32  30  92 CALM      29.74R
AURORA         CLOUDY    36  26  67 CALM      29.74R
HASTINGS       CLOUDY    34  26  72 CALM      29.74R
HEBRON         CLOUDY    34  27  75 CALM      29.74S
HOLDREGE       CLOUDY    35  26  71 N3        29.72R
KEARNEY        CLOUDY    34  30  85 NW5       29.74R WCI  30
YORK           CLOUDY    36  28  75 SW6       29.74S WCI  31
$$

NEZ011>018-030>034-042>045-200400-
NORTHEAST NEBRASKA

CITY           SKY/WX    TMP DP  RH WIND       PRES   REMARKS
NORFOLK        CLOUDY    37  31  78 W9        29.72R WCI  30
ALBION         CLOUDY    37  32  82 NW6       29.73S WCI  32
BLAIR          CLOUDY    40  29  64 SW8       29.73R WCI  35
COLUMBUS       CLOUDY    29  25  85 CALM      29.74R
FREMONT        CLOUDY    39  29  67 SW5       29.74R
TEKAMAH        CLOUDY    33  26  75 SW6       29.73R WCI  28
WAYNE          CLOUDY    35  32  89 CALM      29.73R
$$

NEZ050>053-065>068-078-088>093-200400-
SOUTHEAST NEBRASKA

CITY           SKY/WX    TMP DP  RH WIND       PRES   REMARKS
LINCOLN        CLOUDY    38  26  62 S3        29.76S
OMAHA EPPLEY   CLOUDY    34  27  75 SE10      29.75R WCI  26
BEATRICE       CLOUDY    38  29  70 CALM      29.76R
FALLS CITY     CLOUDY    36  27  69 CALM      29.79R
NEBRASKA CITY  CLOUDY    35  31  87 S7        29.77R WCI  29
PLATTSMOUTH    CLOUDY    38  30  73 S7        29.75S WCI  32
$$

NEZ044-045-051>053-067-200400-
OMAHA AREA

CITY           SKY/WX    TMP DP  RH WIND       PRES   REMARKS
OMAHA EPPLEY   CLOUDY    34  27  75 SE10      29.75R WCI  26
BLAIR          CLOUDY    40  29  64 SW8       29.73R WCI  35
FREMONT        CLOUDY    39  29  67 SW5       29.74R
MILLARD        CLOUDY    34  28  78 CALM      29.75S
OFFUTT AFB     CLOUDY    31  26  81 CALM      29.75R
PLATTSMOUTH    CLOUDY    38  30  73 S7        29.75S WCI  32
WAHOO          FAIR      40  27  61 SW5       29.74R
$$




USA.gov is the U.S. government's official web portal to all federal, state and local government web resources and services.